www.pogodaiklimat.ru

Погода и климат >> Архив погоды >> Россия >> Еврейская автономная область >> Облучье


ПОГОДА в Облучье

  • Прогноз погоды в Облучье
  • Монитор погоды в Облучье

АРХИВ ПОГОДЫ в Облучье

Время (UTC), дата Ветер
(напр.,м/с)
 
Видим.   Явления Облачность Т
(С)
Тd
(С)
f
(%)
Тe
(С)
Тes
(С)
Комфортность P
(гПа)
Po
(гПа)
Тmin
(С)
Tmax
(С)
R
(мм)
R24
(мм)
S
(см)
00 16.04 Ю 3 20 км 10/5 600 м
[Cb cap Cs]
+11.0 -4.1 34 +10 +12 997.5 966.4
03 16.04 ЮВ 5-12
{12}
50 км 10/3 600 м
[Cb cap Cs]
+20.5 -5.6 17 +20 +24 993.0 963.0
06 16.04 Ю 6-16
{16}
50 км 10/0
[Ac As]
+21.4 -4.8 17 +20 +21 990.7 960.8
09 16.04 СЗ 5
{16}
10 км 10/0
[Ac As]
+14.6 -4.4 27 +13 +14 995.3 964.6 +21.4
12 16.04 СЗ 3 20 км 10/0
[As op]
+9.0 -3.1 42 +7 +7 1001.2 969.7
15 16.04 С 4 20 км 10/0
[As op]
+6.5 -8.7 33 +4 +4 1002.9 971.0
18 16.04 С 3
{11}
20 км 10/0
[Ac As]
+4.9 -11.0 31 +2 +2 1004.6 972.5
21 16.04 В 1 20 км 10/0
[Ac trans Cs]
+1.7 -8.1 48 +1 +1 1006.1 973.7 +1.7
00 17.04 СЗ 2 20 км 10/0
[As trans]
+6.3 -12.1 25 +5 +8 1004.9 973.0 +1.4
03 17.04 ЮЗ 2 20 км 10/0
[As trans Cs]
+9.5 -12.0 21 +9 +15 1002.4 970.9
06 17.04 В 2 10 км 10/0
[As trans]
+10.6 -10.4 22 +10 +14 998.9 967.6
09 17.04 Ю 1 20 км 10/0
[As op]
+10.2 -6.4 30 +11 +11 996.1 964.9 +11.2
12 17.04 Ю 1 20 км 10/0
[As op]
+9.5 -7.5 29 +10 +10 994.6 963.4
15 17.04 штиль 0 20 км 10/0
[As op]
+2.4 -3.6 65 +2 +2 993.0 961.0
18 17.04 штиль 0 20 км 10/0
[As op]
+1.5 -3.2 71 +1 +1 990.5 958.5
21 17.04 З 1 10 км слаб. дождь 10/0
[As op]
+4.1 +1.2 81 +3 +3 987.8 956.2 +1.0 1
00 18.04 штиль 0 2000 м снег {дождь} 10/0
[As op]
+0.2 +0.2 100 -1 +1 991.9 959.7 0.0
03 18.04 СЗ 3 10 км слаб. снег 10/0
[As op]
-0.4 -2.0 89 -5 -3 997.2 964.8
06 18.04 СЗ 4
{11}
4000 м снег 10/0
[As op]
-2.4 -3.7 91 -8 -7 1002.5 969.7
09 18.04 С 4
{14}
20 км в посл. час снег {метель} 10/0
[As op]
-1.3 -4.4 79 -7 -7 1006.1 973.3 +4.1 13
12 18.04 СЗ 1 50 км {снег, метель} 1/0
[Ci fib]
-4.9 -6.8 87 -7 -7 1008.5 975.2
15 18.04 С 2 50 км ясно -5.3 -10.5 67 -9 -9 1009.1 975.7
18 18.04 С 2 50 км ясно -5.0 -12.6 55 -9 -9 1009.6 976.2
21 18.04 СЗ 3 50 км ясно -5.5 -12.5 58 -11 -10 1010.6 977.1 -6.7 8
00 19.04 СЗ 3 50 км ясно -1.6 -10.8 49 -6 +1 1011.7 978.7
03 19.04 СЗ 4
{11}
50 км 6/6 1000 м
[Sc]
+1.5 -9.1 45 -3 +1 1012.6 979.9
06 19.04 СЗ 4-11
{13}
50 км 6/4 1000 м
[Sc Ac trans]
+3.1 -8.5 42 -1 +2 1012.6 980.1
09 19.04 СЗ 4
{15}
50 км ясно +3.2 -11.1 34 -0 0 1012.9 980.4 +3.8
12 19.04 С 2 50 км ясно -2.5 -7.9 66 -6 -6 1014.3 981.0
15 19.04 С 1 50 км ясно -6.0 -7.3 90 -8 -8 1015.2 981.5
18 19.04 С 2 50 км ясно -6.8 -9.0 84 -11 -11 1014.6 980.8
21 19.04 С 3 50 км ясно -7.3 -10.4 78 -13 -13 1013.2 979.4 -7.5
00 20.04 Ю 1 50 км ясно +4.6 -9.9 34 +4 +13 опасность
простуды
1010.2 977.9
03 20.04 Ю 4 50 км 10/0
[Ci fib]
+9.2 -9.6 25 +7 +15 1006.5 974.9
06 20.04 Ю 5 20 км 10/0
[As op]
+9.8 -12.1 20 +8 +9 1003.1 971.6
09 20.04 ЮВ 2 20 км 10/0
[As op]
+7.3 -5.4 40 +6 +6 1002.7 971.0 +10.5
12 20.04 ЮВ 3 20 км 10/0
[As op]
+5.7 -1.7 59 +3 +3 1005.0 973.0
15 20.04 СЗ 1 20 км 10/0
[As trans Cs]
+1.6 -3.1 71 0 0 1004.8 972.4
18 20.04 штиль 0 20 км ясно -3.5 -4.2 95 -5 -5 1007.7 974.5
21 20.04 С 1 20 км ясно -5.0 -5.1 99 -8 -7 1009.3 976.0 -5.4
00 21.04 СЗ 2 50 км ясно +4.6 -7.6 41 +3 +10 1009.5 977.2
03 21.04 З 4
{12}
50 км 6/5 1000 м
[Cu hum Ci fib]
+7.2 -10.8 26 +5 +9 1009.3 977.4
06 21.04 СЗ 4
{13}
50 км 4/3 1000 м
[Cu hum Ci ing]
+8.2 -10.3 26 +6 +10 1009.8 977.9
09 21.04 СЗ 3
{11}
50 км 3/3 1000 м
[Cu hum]
+7.4 -12.1 24 +6 +6 1010.2 978.3 +8.4
12 21.04 СВ 1 50 км ясно -1.4 -7.6 63 -3 -3 1012.7 979.7
15 21.04 С 1 50 км ясно -3.1 -7.4 72 -5 -5 1014.1 980.8
18 21.04 С 1 50 км ясно -4.5 -8.0 77 -7 -7 1015.5 982.0
21 21.04 С 3 50 км ясно -4.8 -8.5 75 -10 -10 1016.4 982.8 -5.1
00 22.04 Ю 1 50 км ясно +6.7 -9.4 31 +7 +16 опасность
простуды
1015.5 983.3
03 22.04 З 2 50 км 3/0
[Ci fib]
+11.7 -12.1 18 +11 +25 опасность
простуды
1013.3 981.7
06 22.04 СВ 2 50 км 8/0
[Ci fib]
+14.6 -12.3 14 +15 +23 1010.2 979.0
09 22.04 ЮВ 1 50 км 10/0
[Cs]
+14.1 -11.5 16 +15 +16 1008.0 976.9 +15.5
12 22.04 ЮЗ 1 20 км 10/0
[Ac As]
+9.0 -8.2 29 +9 +9 1008.7 977.0
15 22.04 СЗ 1 20 км 10/0
[As op]
+9.1 -9.2 26 +9 +9 1007.2 975.5
18 22.04 Ю 3 20 км 10/4 600 м
[Cb cap As op]
+8.1 -7.0 34 +6 +6 1005.1 973.4
21 22.04 Ю 1 10 км слаб. ливневой дождь 10/10 600 м
[Cb cap]
+4.2 +2.0 86 +3 +3 1003.9 971.8 +4.1 1

 

Местоположение метеостанции Облучье (Еврейская автономная область, Россия): широта 49.00 долгота 131.00 высота над уровнем моря 267 м.

В архиве по умолчанию представлена погода в Облучье за последнюю неделю. Архивные данные за месяц целиком и за предыдущие месяцы, начиная с января 2011 года, Вы можете получить, выбрав интересующий диапазон дат из раскрывающегося списка и нажав кнопку "Ввод!".


*Определитесь, кто Вы:
робот инопланетянин человек

Внимание! Время в таблицах - всемирное. Для получения местного времени необходимо прибавить поправку, которая равна 10 ч.

Смотрите также архив погоды в соседних городах и на ближайших метеорологических станциях:

Погода в Архаре (Амурская область, Россия) (86 км)
Погода в Малиновке (Амурская область, Россия) (118 км)
Погода в Биджане (Еврейская автономная область, Россия) (133 км)
Погода в Екатерино-Никольском (Еврейская автономная область, Россия) (139 км)
Погода в Биробиджане (Еврейская автономная область, Россия) (142 км)
Погода в Сутуре (Хабаровский край, Россия) (143 км)
Погода в Сектагли (Хабаровский край, Россия) (159 км)
Погода в Урми (Хабаровский край, Россия) (166 км)
Погода в Ленинское (Еврейская автономная область, Россия) (166 км)
Погода в Завитае (Амурская область, Россия) (170 км)

Пояснения к столбцам:

Ветер - указаны скорость ветра в м/с - средняя за 10 мин, порывы в срок и между сроками (в фигурных скобках) и направление, откуда дует ветер: С - северный, СВ - северо-восточный, В - восточный, ЮВ - юго-восточный, Ю - южный, ЮЗ - юго-западный, З - западный, СЗ - северо-западный.
Видимость - горизонтальная дальность видимости в метрах или километрах. При видимости от 1 до 10 км при отсутствии осадков обычно наблюдается дымка, при ухудшении видимости до 1 км и менее - туман. В сухую погоду видимость может ухудшаться дымом, пылью или мглою.
Явления - указаны атмосферные явления, наблюдавшиеся в срок или в последний час перед сроком; фигурными скобками обозначены явления, наблюдавшиеся между сроками (за 1-3 часа до срока); квадратными скобками обозначены град или гололедные отложения с указанием их диаметра в мм.
Облачность - указаны через наклонную черту общая и нижняя облачность в баллах и высота нижней границы облаков в метрах; квадратными скобками обозначены формы облаков: Ci - перистые, Cs - перисто-слоистые, Cc - перисто-кучевые, Ac - высококучевые, As - высокослоистые, Sc - слоисто-кучевые, Ns - слоисто-дождевые, Cu - кучевые, Cb - кучево-дождевые. Подробнее классификацию облаков см. в Атласе облаков (PDF).
T - Температура воздуха - температура, измеренная на высоте 2 м над землей.
Td - Температура точки росы - температура, при понижении до которой содержащийся в воздухе водяной пар достигнет насыщения.
f - Относительная влажность воздуха - влажноcть воздуха, измеренная на высоте 2 м над землей.
Te - Эффективная температура - температура, которую ощущает одетый по сезону человек в тени. Характеристика душности погоды. При расчете учитывается влияние влажности воздуха и скорости ветра на теплоощущения человека.
Tes - Эффективная температура на солнце - температура, которую ощущает человек, с поправкой на солнечный нагрев. Характеристика знойности погоды. Зависит от высоты солнца над горизонтом, облачности и скорости ветра. Ночью, в пасмурную погоду, а также при ветре 12 м/с и более поправка равна нулю.
P - Атмосферное давление - приведенное к уровню моря атмосферное давление.
Po - Атмосферное давление - измеренное на уровне метеостанции атмосферное давление.
Tmin - Минимальная температура - минимум температуры воздуха на высоте 2 м над землей.
Tmax - Максимальная температура - максимум температуры воздуха на высоте 2 м над землей.
R - Количество осадков - Количество выпавших осадков за период времени, мм. При наведении курсора мыши на число - период времени, за который выпало указанное количество осадков.
R24 - Количество осадков - Количество выпавших осадков за 24 часа, мм.
S - Снежный покров - Высота снежного покрова, см. При наведении курсора мыши на число - состояние снежного покрова и степень покрытия местности в баллах.